COSMOS 252 DEB, 9973

Orbit data source: Space-Track

COSMOS 252 DEB, 9973 is space debris in LEO originally from a launch on Fri, 01 Nov 1968 UTC launched from the Tyuratam Missile And Space Complex (TTMTR). Debris objects in space refer to the collection of defunct objects orbiting the Earth. Examples of debris include non-operational satellites, rocket bodies, and fragments generated from explosions, collisions, or faulty payload assembly.

Loading next visibility...
Identifier
9973, 1968-097DV
Orbit
LEO
Country
Flag of CISCIS
Related business
Manufacturer
Unknown
Mission
Spacecraft
Bus & Motor
Unknown
Mass
Unknown
Launch date (UTC)
1968-11-01 (57 years ago)
Launch vehicle
Unknown
Launch site
Tyuratam Missile And Space Complex (TTMTR)
Object type
Payload
Rocket body
Debris
Shape & HBR
Unknown shape, 0.1 m
Radar Cross Section
Small (<0.1 m²)

Expand to show TLE details & history
Last TLE update: 19 hours ago

TLE from 19 hours ago
0 COSMOS 252 DEB
1 09973U 68097DV  26121.51815596  .00002189  00000-0  77519-3 0  9992
2 09973  62.4071 169.8963 0564165 239.0610 115.3816 13.73302919 24380
Epoch: 2026-05-01T12:26Z
TLE epoch observation values (Epoch: 2026-05-01T12:26:08.674Z)
Latitude
-0.00002°
Longitude
123.91089°
Altitude
1,186.009 km
Speed
7.164 km/s
True Right ascension
11h 19m 35s
True Declination
0° 00' 00"
Sunlit
Object was in full shadow at epoch
Visualization orbit readout
Latitude
Unknown
Longitude
Unknown
Altitude
Unknown
Speed
Unknown
Apparent Right ascension
Unknown
Apparent Declination
Unknown
Sunlit
N/A
Visualization observer readout
Local Sidereal Time
15:26:12
Azimuth
Unknown
Elevation
Unknown
Doppler factor
Unknown
Orbital elements
Apogee altitude
1,402.168 km
Perigee altitude
571.174 km
Semi-major axis
7,364.808 km
Eccentricity
0.05642
Inclination
62.4071°
RAAN
169.8963°
Arg. of periapsis
239.061°
True anomaly
121.04167°
Mean anomaly
115.3816°
Eccentric anomaly
118.22956°
Mean motion
3.43401 °/min
Orbital period
104.83 mins
BSTAR
0.00077519
Loading maneuver chart data...
Computing Atmospheric mass density...

Documentation

Showing up to 5 results
|